KN6TED Weather Reports


Display with metric or nautical units.
time (UTC)temp
F
wind
direction
speed
MPH
gust
MPH
rain 1hr
in
rain 24hr
in
rain mn
in
humidity
%
barometer
mb
20260506073058 61 115 2.0 7.0 0.00 0.03 0.00 83 1017.1
20260506072559 61 111 1.0 6.0 0.00 0.03 0.00 83 1017.0
20260506072058 61 76 2.0 6.0 0.00 0.03 0.00 83 1017.0
20260506071557 61 93 2.0 6.0 0.00 0.03 0.00 83 1016.9
20260506071059 61 117 2.0 6.0 0.00 0.03 0.00 83 1016.9
20260506070559 61 120 1.0 4.0 0.00 0.03 0.00 83 1016.8
20260506062102 62 105 2.0 5.0 0.00 0.05 0.03 82 1016.6
20260506061557 62 120 2.0 5.0 0.00 0.05 0.03 82 1016.6
20260506061102 62 93 2.0 4.0 0.00 0.05 0.03 82 1016.6
20260506060558 62 93 1.0 4.0 0.00 0.05 0.03 82 1016.6
20260506060121 62 108 1.0 4.0 0.00 0.05 0.03 82 1016.6
20260506051059 62 212 2.0 6.0 0.00 0.10 0.03 80 1016.1
20260506050558 63 153 1.0 6.0 0.00 0.10 0.03 80 1016.2
20260506045100 63 0 0.0 5.0 0.00 0.14 0.03 79 1016.0
20260506044611 63 221 1.0 5.0 0.00 0.14 0.03 78 1016.0
20260506044059 63 137 1.0 5.0 0.00 0.14 0.03 78 1015.9
20260506043559 63 34 0.0 5.0 0.00 0.14 0.03 78 1015.8
20260506043057 63 178 1.0 4.0 0.00 0.14 0.03 77 1015.8
20260506042559 63 212 1.0 6.0 0.00 0.14 0.03 77 1015.8
20260506042057 63 93 2.0 10.0 0.00 0.14 0.03 76 1015.7
20260506041558 63 218 2.0 10.0 0.00 0.14 0.03 76 1015.7
20260506041059 63 110 1.0 8.0 0.00 0.14 0.03 76 1015.5
20260506040558 63 0 1.0 8.0 0.00 0.14 0.03 76 1015.5
20260506040100 63 0 2.0 7.0 0.00 0.14 0.03 77 1015.4
20260506035558 63 165 2.0 7.0 0.00 0.18 0.03 77 1015.3
20260506035058 64 93 2.0 6.0 0.00 0.18 0.03 77 1015.2
20260506034600 64 120 1.0 6.0 0.00 0.18 0.03 76 1015.3
20260506034059 64 22 2.0 9.0 0.00 0.18 0.03 76 1015.1
20260506033559 64 137 2.0 9.0 0.00 0.18 0.03 75 1015.1
20260506033113 64 102 3.0 9.0 0.00 0.18 0.03 74 1015.0
20260506032603 64 93 3.0 9.0 0.00 0.18 0.03 74 1014.8
20260506032100 64 113 4.0 9.0 0.00 0.18 0.03 73 1014.8
20260506031610 64 99 3.0 8.0 0.00 0.18 0.03 73 1014.6
20260506031059 64 120 2.0 10.0 0.00 0.18 0.03 73 1014.6
20260506030603 64 105 3.0 10.0 0.00 0.18 0.03 73 1014.5
20260506030110 64 87 3.0 9.0 0.00 0.18 0.03 73 1014.4
20260506025558 64 105 3.0 9.0 0.00 0.25 0.03 73 1014.3
20260506025059 65 68 2.0 9.0 0.00 0.25 0.03 73 1014.3
20260506024610 65 126 2.0 8.0 0.00 0.25 0.03 73 1014.2
20260506024059 65 82 2.0 8.0 0.00 0.25 0.03 73 1014.1
20260506023558 65 93 2.0 8.0 0.00 0.25 0.03 73 1014.1
20260506023103 65 108 2.0 8.0 0.00 0.25 0.03 73 1014.0
20260506022558 65 68 4.0 9.0 0.00 0.25 0.03 72 1014.1
20260506022058 65 51 3.0 9.0 0.00 0.25 0.03 71 1014.0
20260506021601 65 108 3.0 6.0 0.00 0.25 0.03 71 1014.1
20260506021058 65 103 2.0 9.0 0.00 0.25 0.03 71 1013.9
20260506020557 65 120 3.0 11.0 0.00 0.25 0.03 71 1013.8
20260506020108 65 93 3.0 11.0 0.00 0.25 0.03 70 1013.8
20260506015559 65 51 4.0 10.0 0.00 0.36 0.03 69 1013.8
20260506015101 66 46 3.0 10.0 0.00 0.36 0.03 69 1013.8
20260506014611 66 108 5.0 10.0 0.00 0.36 0.03 69 1013.7
20260506014058 66 137 5.0 10.0 0.00 0.36 0.03 69 1013.7
20260506013602 66 93 3.0 10.0 0.00 0.36 0.03 68 1013.6
20260506013110 66 334 2.0 12.0 0.00 0.36 0.03 67 1013.6
20260506012558 66 167 3.0 12.0 0.00 0.36 0.03 67 1013.6
20260506012058 67 178 2.0 7.0 0.00 0.36 0.03 67 1013.6
20260506011600 67 26 1.0 7.0 0.00 0.36 0.03 67 1013.7
20260506011101 67 0 1.0 8.0 0.00 0.36 0.03 66 1013.6
20260506010600 67 93 3.0 8.0 0.00 0.36 0.03 65 1013.6
20260506010059 68 9 2.0 8.0 0.00 0.36 0.03 64 1013.6
20260506005601 68 108 2.0 10.0 0.00 0.52 0.03 63 1013.5
20260506005058 69 129 2.0 10.0 0.00 0.52 0.03 63 1013.5
20260506004601 69 146 5.0 10.0 0.00 0.52 0.03 63 1013.4
20260506004059 69 153 2.0 10.0 0.00 0.52 0.03 62 1013.5
20260506003559 69 137 1.0 10.0 0.00 0.52 0.03 62 1013.5
20260506003058 68 178 3.0 10.0 0.00 0.52 0.03 63 1013.5
20260506002558 68 0 3.0 9.0 0.00 0.52 0.03 62 1013.5
20260506002058 68 83 2.0 9.0 0.00 0.52 0.03 62 1013.4
20260506001610 68 186 2.0 9.0 0.00 0.52 0.03 63 1013.5
20260506001058 68 120 2.0 7.0 0.00 0.52 0.03 62 1013.4
20260506000559 68 0 1.0 7.0 0.00 0.52 0.03 62 1013.3
20260506000101 68 68 2.0 7.0 0.00 0.52 0.03 63 1013.3
20260505235558 68 178 3.0 8.0 0.00 0.56 0.03 63 1013.3
20260505235058 68 167 3.0 8.0 0.00 0.56 0.03 62 1013.2
20260505234601 68 169 1.0 7.0 0.00 0.56 0.03 63 1013.4
20260505234101 68 165 2.0 6.0 0.00 0.56 0.03 62 1013.5
20260505233559 68 131 1.0 5.0 0.00 0.56 0.03 61 1013.5
20260505233057 68 51 1.0 7.0 0.00 0.56 0.03 61 1013.5
20260505232601 68 178 2.0 7.0 0.00 0.56 0.03 61 1013.5
20260505232104 68 175 1.0 8.0 0.00 0.56 0.03 63 1013.6
20260505231604 68 157 4.0 8.0 0.00 0.56 0.03 62 1013.6
20260505231103 68 162 2.0 7.0 0.00 0.56 0.03 63 1013.6
20260505230559 67 153 1.0 7.0 0.00 0.56 0.03 61 1013.6
20260505230101 68 137 2.0 7.0 0.00 0.56 0.03 60 1013.7
20260505225558 68 76 1.0 4.0 0.00 0.56 0.03 61 1013.8
20260505225059 67 205 1.0 11.0 0.00 0.56 0.03 62 1013.8
20260505224600 67 93 1.0 11.0 0.00 0.56 0.03 61 1013.7
20260505224057 68 57 3.0 9.0 0.00 0.56 0.03 61 1013.8
20260505223558 69 178 1.0 9.0 0.00 0.56 0.03 62 1013.8
20260505223100 69 265 2.0 9.0 0.00 0.56 0.03 63 1013.9
20260505222558 69 289 3.0 10.0 0.00 0.56 0.03 62 1013.9
20260505222058 69 196 2.0 10.0 0.00 0.56 0.03 63 1014.0
20260505221559 68 196 2.0 10.0 0.00 0.56 0.03 65 1014.0
20260505221058 68 0 3.0 10.0 0.00 0.56 0.03 65 1014.1
20260505220559 68 185 3.0 9.0 0.00 0.56 0.03 66 1014.1
20260505220057 68 9 3.0 11.0 0.00 0.56 0.03 66 1014.1
20260505215558 68 309 2.0 11.0 0.00 0.58 0.03 66 1014.2
20260505215058 68 88 4.0 9.0 0.00 0.58 0.03 65 1014.1
20260505214557 68 178 2.0 8.0 0.00 0.58 0.03 67 1014.2
20260505214058 67 173 2.0 9.0 0.00 0.58 0.03 67 1014.2
20260505213559 67 47 3.0 9.0 0.00 0.58 0.03 67 1014.3
20260505213110 67 188 2.0 9.0 0.00 0.58 0.03 68 1014.4
20260505212558 66 164 3.0 8.0 0.00 0.58 0.03 67 1014.4
20260505212059 66 93 3.0 8.0 0.00 0.58 0.03 68 1014.4
20260505211558 65 173 2.0 7.0 0.00 0.58 0.03 69 1014.4
20260505211058 65 88 2.0 10.0 0.00 0.58 0.03 69 1014.4
20260505210558 65 41 4.0 10.0 0.00 0.58 0.03 68 1014.3
20260505210100 65 178 2.0 7.0 0.00 0.58 0.03 69 1014.3
20260505205558 65 99 1.0 6.0 0.00 0.62 0.03 69 1014.3
20260505205100 65 249 1.0 6.0 0.00 0.62 0.03 67 1014.3
20260505204600 65 249 2.0 6.0 0.00 0.62 0.03 66 1014.4
20260505204059 65 214 2.0 5.0 0.00 0.62 0.03 69 1014.5
20260505203558 65 144 1.0 8.0 0.00 0.62 0.03 70 1014.4
20260505203106 64 178 2.0 8.0 0.00 0.62 0.03 71 1014.4
20260505202558 64 171 1.0 6.0 0.00 0.62 0.03 73 1014.4
20260505202058 63 153 3.0 8.0 0.00 0.62 0.03 72 1014.5
20260505201606 63 237 3.0 8.0 0.00 0.62 0.03 72 1014.5
20260505201058 63 225 2.0 8.0 0.00 0.62 0.03 76 1014.6
20260505200558 63 193 3.0 8.0 0.00 0.62 0.03 72 1014.6
20260505200059 63 205 3.0 7.0 0.00 0.62 0.03 74 1014.7
20260505195602 63 137 2.0 7.0 0.00 0.67 0.03 76 1014.7
20260505195057 63 221 1.0 7.0 0.00 0.67 0.03 76 1014.7
20260505194559 63 178 3.0 7.0 0.00 0.67 0.03 72 1014.8
20260505194058 63 147 1.0 7.0 0.00 0.67 0.03 73 1014.7
20260505193600 64 178 2.0 6.0 0.00 0.67 0.03 74 1014.8
20260505193059 63 247 3.0 6.0 0.00 0.67 0.03 73 1014.7
20260505192557 63 316 2.0 6.0 0.00 0.67 0.03 73 1014.7
20260505192058 63 137 3.0 10.0 0.00 0.67 0.03 74 1014.8
20260505191615 63 76 2.0 11.0 0.00 0.67 0.03 73 1014.8
20260505191057 62 123 4.0 11.0 0.00 0.67 0.03 76 1014.9
20260505190559 62 165 2.0 8.0 0.00 0.67 0.03 76 1014.9
20260505190059 61 68 2.0 8.0 0.00 0.67 0.03 77 1014.9
20260505185558 61 195 2.0 5.0 0.00 0.68 0.03 78 1014.9
20260505185058 60 221 2.0 5.0 0.00 0.68 0.03 81 1014.9
20260505184557 60 178 2.0 6.0 0.00 0.68 0.03 80 1015.0
20260505184058 60 218 2.0 10.0 0.00 0.68 0.03 81 1014.9
20260505183558 60 291 1.0 10.0 0.00 0.68 0.03 81 1014.9
20260505183057 59 259 2.0 10.0 0.00 0.68 0.03 83 1015.0
20260505182557 59 227 1.0 5.0 0.00 0.68 0.03 84 1015.0
20260505182128 58 209 2.0 5.0 0.00 0.68 0.03 84 1015.0
20260505181557 58 304 1.0 6.0 0.00 0.68 0.03 84 1014.9
20260505181057 58 301 2.0 6.0 0.00 0.68 0.03 84 1014.9
20260505180558 58 272 1.0 5.0 0.00 0.68 0.03 84 1014.9
20260505180107 57 9 1.0 5.0 0.00 0.68 0.03 85 1015.0
20260505175601 57 0 1.0 5.0 0.00 0.68 0.03 85 1015.0
20260505175059 57 64 1.0 5.0 0.00 0.68 0.03 84 1014.9
20260505174611 57 120 2.0 5.0 0.00 0.68 0.03 84 1014.9
20260505174056 57 51 1.0 4.0 0.00 0.68 0.03 86 1014.9
20260505173558 56 0 1.0 4.0 0.00 0.68 0.03 86 1014.9
20260505173057 56 51 2.0 5.0 0.00 0.68 0.03 87 1015.0
20260505172558 56 129 1.0 5.0 0.00 0.68 0.03 88 1014.9
20260505172058 56 178 1.0 4.0 0.00 0.68 0.03 89 1014.9
20260505171556 56 80 1.0 7.0 0.00 0.68 0.03 89 1014.9
20260505171059 56 0 2.0 7.0 0.00 0.68 0.03 89 1014.9
20260505170558 56 129 0.0 5.0 0.00 0.68 0.03 91 1015.0
20260505170059 56 126 2.0 6.0 0.00 0.68 0.03 91 1014.8
20260505165558 55 265 1.0 6.0 0.00 0.68 0.03 90 1014.9
20260505165058 55 85 1.0 6.0 0.00 0.68 0.03 91 1015.0
20260505164558 55 93 2.0 6.0 0.00 0.68 0.03 91 1014.8
20260505164059 55 137 2.0 6.0 0.00 0.68 0.03 92 1014.8
20260505163558 55 85 1.0 6.0 0.00 0.68 0.03 92 1014.7
20260505163059 55 137 1.0 7.0 0.00 0.68 0.03 92 1014.6
20260505162558 55 80 2.0 7.0 0.00 0.68 0.03 93 1014.6
20260505162059 55 68 2.0 7.0 0.00 0.68 0.03 93 1014.7
20260505161557 55 83 2.0 7.0 0.00 0.68 0.03 93 1014.7
20260505161058 55 86 2.0 8.0 0.00 0.68 0.03 94 1014.7
20260505160557 54 99 2.0 8.0 0.00 0.68 0.03 94 1014.6
20260505153057 54 105 2.0 8.0 0.00 0.68 0.03 95 1014.4
20260505152558 53 26 2.0 8.0 0.00 0.68 0.03 95 1014.3
20260505152101 53 90 2.0 8.0 0.00 0.68 0.03 96 1014.4
20260505151559 53 108 2.0 6.0 0.00 0.68 0.03 96 1014.3
20260505151057 53 64 1.0 4.0 0.00 0.68 0.03 96 1014.4
20260505150559 53 113 1.0 6.0 0.00 0.68 0.03 96 1014.4
20260505140601 53 46 2.0 9.0 0.00 0.68 0.03 96 1013.6
20260505124557 53 31 2.0 6.0 0.00 0.68 0.03 96 1013.2
20260505124059 53 57 1.0 6.0 0.00 0.68 0.03 96 1013.1
20260505123558 53 111 2.0 4.0 0.00 0.68 0.03 96 1012.9
20260505123059 53 124 2.0 5.0 0.00 0.68 0.03 96 1013.0
20260505122558 53 105 2.0 6.0 0.00 0.68 0.03 96 1013.0
20260505122058 53 129 2.0 6.0 0.00 0.68 0.03 96 1013.0
20260505121556 53 132 1.0 5.0 0.00 0.68 0.03 96 1013.0
20260505121058 53 108 1.0 5.0 0.00 0.68 0.03 96 1013.0
20260505120558 53 93 1.0 5.0 0.00 0.68 0.03 96 1013.1
20260505115558 53 0 1.0 4.0 0.00 0.68 0.03 96 1013.1
20260505115058 53 120 0.0 4.0 0.00 0.68 0.03 96 1013.1
20260505114601 53 0 1.0 4.0 0.00 0.68 0.03 96 1013.1
20260505114059 53 137 0.0 3.0 0.00 0.68 0.03 96 1013.0
20260505113559 53 111 1.0 4.0 0.00 0.68 0.03 96 1013.1
20260505113057 53 162 2.0 4.0 0.00 0.68 0.03 96 1013.0
20260505112558 53 51 1.0 4.0 0.00 0.68 0.03 96 1013.1
20260505112058 53 51 1.0 4.0 0.00 0.68 0.03 96 1013.2
20260505111557 53 137 1.0 4.0 0.00 0.68 0.03 96 1013.1
20260505111101 53 111 1.0 5.0 0.00 0.68 0.03 96 1013.1
20260505110558 53 178 1.0 5.0 0.00 0.68 0.03 96 1013.1
20260505102058 53 87 1.0 6.0 0.00 0.68 0.03 96 1013.1
20260505101608 53 0 1.0 6.0 0.00 0.68 0.03 96 1013.1
20260505101102 53 93 1.0 7.0 0.00 0.68 0.03 96 1013.1
20260505100600 53 120 2.0 7.0 0.00 0.68 0.03 96 1013.1
20260505100107 53 104 1.0 5.0 0.00 0.68 0.03 96 1013.1
20260505095558 53 0 1.0 3.0 0.00 0.68 0.03 96 1013.1
20260505095058 53 76 0.0 3.0 0.00 0.68 0.03 96 1013.1
20260505094558 52 80 1.0 8.0 0.00 0.68 0.03 96 1013.0
20260505094057 52 86 1.0 8.0 0.00 0.68 0.03 96 1013.1
20260505093557 53 76 1.0 8.0 0.00 0.68 0.03 96 1013.0
20260505093104 52 0 2.0 8.0 0.00 0.68 0.03 96 1013.0
20260505092558 52 93 1.0 8.0 0.00 0.68 0.03 96 1013.0
20260505092059 52 76 2.0 9.0 0.00 0.68 0.03 96 1013.2
20260505091559 52 86 2.0 10.0 0.00 0.68 0.03 96 1013.4
20260505091101 52 88 3.0 10.0 0.00 0.68 0.03 96 1013.4
20260505090558 52 88 3.0 9.0 0.00 0.68 0.03 96 1013.4
20260505085559 52 93 2.0 10.0 0.00 0.68 0.03 96 1013.2
20260505085058 52 90 3.0 10.0 0.01 0.68 0.03 96 1013.2
20260505084606 52 88 3.0 14.0 0.01 0.68 0.03 96 1013.4
20260505084059 52 87 4.0 14.0 0.01 0.68 0.03 95 1013.4
20260505083600 53 111 4.0 11.0 0.02 0.68 0.03 96 1013.6
20260505083105 53 120 2.0 13.0 0.02 0.68 0.03 96 1013.7
20260505082558 53 88 5.0 13.0 0.03 0.68 0.03 96 1013.7
20260505082059 53 93 6.0 14.0 0.03 0.68 0.03 96 1013.8
20260505081623 53 90 6.0 14.0 0.03 0.68 0.03 96 1013.7
20260505081058 52 93 5.0 12.0 0.03 0.68 0.03 96 1013.3
20260505080559 52 80 3.0 9.0 0.03 0.68 0.03 96 1012.9